カタログに戻る

ONEWEB-0698

運用中通信PO
NORAD 61604·PAYLOAD·🇬🇧 United Kingdom

打ち上げ Oct 20, 2024 から Vandenberg Space Force Base

Loading…

次のパス (今後24時間)

TLE

最新Source: CelesTrak SupGP

元期: Sep 14, 2026, 15:29 UTC

1 61604C 24188L   26257.64564074  .00002081  00000+0  58793-2 0  2579
2 61604  87.8960   3.2929 0001859  66.4990  42.9844 13.11409749    10

AllMySatでONEWEB-0698をリアルタイム追跡

Download on the App Store